owner,sensor,date,latitude,longitude,vertical_datum,sea_water_practical_salinity,qcFlag 
ENP,ioos.station.NOAA.NDBC:CWAF1:1,2017-11-02T08:00:00Z,25.2970,-81.0130,1.5,5.29,1111122 
ENP,ioos.station.NOAA.NDBC:CWAF1:1,2017-11-02T10:00:00Z,25.2970,-81.0130,1.5,5.74,1111122 
ENP,ioos.station.NOAA.NDBC:CWAF1:1,2017-11-02T11:00:00Z,25.2970,-81.0130,1.5,5.77,1111122 
ENP,ioos.station.NOAA.NDBC:CWAF1:1,2017-11-02T21:00:00Z,25.2970,-81.0130,1.5,6.17,1111122 
ENP,ioos.station.NOAA.NDBC:CWAF1:1,2017-11-02T22:00:00Z,25.2970,-81.0130,1.5,6.51,1111122 
ENP,ioos.station.NOAA.NDBC:CWAF1:1,2017-11-02T23:00:00Z,25.2970,-81.0130,1.5,6.54,1111122 
ENP,ioos.station.NOAA.NDBC:CWAF1:1,2017-11-03T00:00:00Z,25.2970,-81.0130,1.5,6.41,1111122 
ENP,ioos.station.NOAA.NDBC:CWAF1:1,2017-11-03T02:00:00Z,25.2970,-81.0130,1.5,6.17,1111122 
ENP,ioos.station.NOAA.NDBC:CWAF1:1,2017-11-03T03:00:00Z,25.2970,-81.0130,1.5,6.08,1111122 
ENP,ioos.station.NOAA.NDBC:CWAF1:1,2017-11-03T05:00:00Z,25.2970,-81.0130,1.5,5.52,1111122 
ENP,ioos.station.NOAA.NDBC:CWAF1:1,2017-11-03T06:00:00Z,25.2970,-81.0130,1.5,5.15,1111122 
ENP,ioos.station.NOAA.NDBC:CWAF1:1,2017-11-03T10:00:00Z,25.2970,-81.0130,1.5,6.48,1111122 
ENP,ioos.station.NOAA.NDBC:CWAF1:1,2017-11-03T11:00:00Z,25.2970,-81.0130,1.5,6.59,1111122 
ENP,ioos.station.NOAA.NDBC:CWAF1:1,2017-11-03T12:00:00Z,25.2970,-81.0130,1.5,6.48,1111122 
ENP,ioos.station.NOAA.NDBC:CWAF1:1,2017-11-03T13:00:00Z,25.2970,-81.0130,1.5,5.42,1111122 
ENP,ioos.station.NOAA.NDBC:CWAF1:1,2017-11-03T14:00:00Z,25.2970,-81.0130,1.5,5.49,1111122 
ENP,ioos.station.NOAA.NDBC:CWAF1:1,2017-11-03T15:00:00Z,25.2970,-81.0130,1.5,5.49,1111122 
ENP,ioos.station.NOAA.NDBC:CWAF1:1,2017-11-03T16:00:00Z,25.2970,-81.0130,1.5,5.47,1111122 
ENP,ioos.station.NOAA.NDBC:CWAF1:1,2017-11-03T17:00:00Z,25.2970,-81.0130,1.5,5.41,1111122 
ENP,ioos.station.NOAA.NDBC:CWAF1:1,2017-11-03T18:00:00Z,25.2970,-81.0130,1.5,5.35,1111122 
ENP,ioos.station.NOAA.NDBC:CWAF1:1,2017-11-03T19:00:00Z,25.2970,-81.0130,1.5,5.23,1111122 
ENP,ioos.station.NOAA.NDBC:CWAF1:1,2017-11-03T20:00:00Z,25.2970,-81.0130,1.5,5.23,1111122 
ENP,ioos.station.NOAA.NDBC:CWAF1:1,2017-11-03T21:00:00Z,25.2970,-81.0130,1.5,5.09,1111122 
ENP,ioos.station.NOAA.NDBC:CWAF1:1,2017-11-03T22:00:00Z,25.2970,-81.0130,1.5,6.74,1111122 
ENP,ioos.station.NOAA.NDBC:CWAF1:1,2017-11-03T23:00:00Z,25.2970,-81.0130,1.5,6.84,1111122 
ENP,ioos.station.NOAA.NDBC:CWAF1:1,2017-11-04T00:00:00Z,25.2970,-81.0130,1.5,6.79,1111122 
ENP,ioos.station.NOAA.NDBC:CWAF1:1,2017-11-04T03:00:00Z,25.2970,-81.0130,1.5,6.11,1111122 
ENP,ioos.station.NOAA.NDBC:CWAF1:1,2017-11-04T06:00:00Z,25.2970,-81.0130,1.5,5.5,1111122 
ENP,ioos.station.NOAA.NDBC:CWAF1:1,2017-11-04T07:00:00Z,25.2970,-81.0130,1.5,5.38,1111122 
ENP,ioos.station.NOAA.NDBC:CWAF1:1,2017-11-04T08:00:00Z,25.2970,-81.0130,1.5,6.15,1111122 
ENP,ioos.station.NOAA.NDBC:CWAF1:1,2017-11-04T11:00:00Z,25.2970,-81.0130,1.5,8.21,1111122 
ENP,ioos.station.NOAA.NDBC:CWAF1:1,2017-11-04T12:00:00Z,25.2970,-81.0130,1.5,8.32,1111122 
ENP,ioos.station.NOAA.NDBC:CWAF1:1,2017-11-04T13:00:00Z,25.2970,-81.0130,1.5,8.29,1111122 
ENP,ioos.station.NOAA.NDBC:CWAF1:1,2017-11-04T14:00:00Z,25.2970,-81.0130,1.5,6.85,1111122 
ENP,ioos.station.NOAA.NDBC:CWAF1:1,2017-11-04T15:00:00Z,25.2970,-81.0130,1.5,6.35,1111122 
ENP,ioos.station.NOAA.NDBC:CWAF1:1,2017-11-04T16:00:00Z,25.2970,-81.0130,1.5,6.41,1111122 
ENP,ioos.station.NOAA.NDBC:CWAF1:1,2017-11-04T17:00:00Z,25.2970,-81.0130,1.5,6.32,1111122 
ENP,ioos.station.NOAA.NDBC:CWAF1:1,2017-11-04T18:00:00Z,25.2970,-81.0130,1.5,6.16,1111122 
ENP,ioos.station.NOAA.NDBC:CWAF1:1,2017-11-04T19:00:00Z,25.2970,-81.0130,1.5,5.7,1111122 
ENP,ioos.station.NOAA.NDBC:CWAF1:1,2017-11-04T20:00:00Z,25.2970,-81.0130,1.5,5.69,1111122 
ENP,ioos.station.NOAA.NDBC:CWAF1:1,2017-11-04T21:00:00Z,25.2970,-81.0130,1.5,5.7,1111122 
ENP,ioos.station.NOAA.NDBC:CWAF1:1,2017-11-04T22:00:00Z,25.2970,-81.0130,1.5,6.13,1111122 
ENP,ioos.station.NOAA.NDBC:CWAF1:1,2017-11-04T23:00:00Z,25.2970,-81.0130,1.5,7.04,1111122 
ENP,ioos.station.NOAA.NDBC:CWAF1:1,2017-11-05T00:00:00Z,25.2970,-81.0130,1.5,7.95,1111122 
ENP,ioos.station.NOAA.NDBC:CWAF1:1,2017-11-05T03:00:00Z,25.2970,-81.0130,1.5,7.98,1111122 
ENP,ioos.station.NOAA.NDBC:CWAF1:1,2017-11-05T04:00:00Z,25.2970,-81.0130,1.5,7.04,1111122 
ENP,ioos.station.NOAA.NDBC:CWAF1:1,2017-11-05T07:00:00Z,25.2970,-81.0130,1.5,6.32,1111122 
ENP,ioos.station.NOAA.NDBC:CWAF1:1,2017-11-05T08:00:00Z,25.2970,-81.0130,1.5,6.27,1111122 
ENP,ioos.station.NOAA.NDBC:CWAF1:1,2017-11-05T09:00:00Z,25.2970,-81.0130,1.5,8.45,1111122 
ENP,ioos.station.NOAA.NDBC:CWAF1:1,2017-11-05T12:00:00Z,25.2970,-81.0130,1.5,10.36,1111122 
ENP,ioos.station.NOAA.NDBC:CWAF1:1,2017-11-05T13:00:00Z,25.2970,-81.0130,1.5,10.29,1111122 
ENP,ioos.station.NOAA.NDBC:CWAF1:1,2017-11-05T14:00:00Z,25.2970,-81.0130,1.5,10.23,1111122 
ENP,ioos.station.NOAA.NDBC:CWAF1:1,2017-11-05T15:00:00Z,25.2970,-81.0130,1.5,9.65,1111122 
ENP,ioos.station.NOAA.NDBC:CWAF1:1,2017-11-05T16:00:00Z,25.2970,-81.0130,1.5,8.29,1111122 
ENP,ioos.station.NOAA.NDBC:CWAF1:1,2017-11-05T17:00:00Z,25.2970,-81.0130,1.5,7.86,1111122 
ENP,ioos.station.NOAA.NDBC:CWAF1:1,2017-11-05T18:00:00Z,25.2970,-81.0130,1.5,7.5,1111122 
ENP,ioos.station.NOAA.NDBC:CWAF1:1,2017-11-05T19:00:00Z,25.2970,-81.0130,1.5,7.05,1111122 
ENP,ioos.station.NOAA.NDBC:CWAF1:1,2017-11-05T20:00:00Z,25.2970,-81.0130,1.5,6.69,1111122 
ENP,ioos.station.NOAA.NDBC:CWAF1:1,2017-11-05T21:00:00Z,25.2970,-81.0130,1.5,6.74,1111122 
ENP,ioos.station.NOAA.NDBC:CWAF1:1,2017-11-05T22:00:00Z,25.2970,-81.0130,1.5,6.83,1111122 
ENP,ioos.station.NOAA.NDBC:CWAF1:1,2017-11-05T23:00:00Z,25.2970,-81.0130,1.5,8.2,1111122 
ENP,ioos.station.NOAA.NDBC:CWAF1:1,2017-11-06T00:00:00Z,25.2970,-81.0130,1.5,9.4,1111122 
ENP,ioos.station.NOAA.NDBC:CWAF1:1,2017-11-06T01:00:00Z,25.2970,-81.0130,1.5,10.04,1111122 
ENP,ioos.station.NOAA.NDBC:CWAF1:1,2017-11-06T03:00:00Z,25.2970,-81.0130,1.5,9.4,1111122 
ENP,ioos.station.NOAA.NDBC:CWAF1:1,2017-11-06T04:00:00Z,25.2970,-81.0130,1.5,8.15,1111122 
ENP,ioos.station.NOAA.NDBC:CWAF1:1,2017-11-06T06:00:00Z,25.2970,-81.0130,1.5,7.57,1111122 
ENP,ioos.station.NOAA.NDBC:CWAF1:1,2017-11-06T07:00:00Z,25.2970,-81.0130,1.5,8.58,1111122 
ENP,ioos.station.NOAA.NDBC:CWAF1:1,2017-11-06T08:00:00Z,25.2970,-81.0130,1.5,9.21,1111122 
ENP,ioos.station.NOAA.NDBC:CWAF1:1,2017-11-06T09:00:00Z,25.2970,-81.0130,1.5,9.27,1111122 
ENP,ioos.station.NOAA.NDBC:CWAF1:1,2017-11-06T11:00:00Z,25.2970,-81.0130,1.5,11.78,1111122 
ENP,ioos.station.NOAA.NDBC:CWAF1:1,2017-11-06T12:00:00Z,25.2970,-81.0130,1.5,11.91,1111122 
ENP,ioos.station.NOAA.NDBC:CWAF1:1,2017-11-06T13:00:00Z,25.2970,-81.0130,1.5,11.97,1111122 
ENP,ioos.station.NOAA.NDBC:CWAF1:1,2017-11-06T14:00:00Z,25.2970,-81.0130,1.5,11.91,1111122 
ENP,ioos.station.NOAA.NDBC:CWAF1:1,2017-11-06T15:00:00Z,25.2970,-81.0130,1.5,11.71,1111122 
ENP,ioos.station.NOAA.NDBC:CWAF1:1,2017-11-06T16:00:00Z,25.2970,-81.0130,1.5,10.16,1111122 
ENP,ioos.station.NOAA.NDBC:CWAF1:1,2017-11-06T17:00:00Z,25.2970,-81.0130,1.5,8.7,1111122 
ENP,ioos.station.NOAA.NDBC:CWAF1:1,2017-11-06T18:00:00Z,25.2970,-81.0130,1.5,8.31,1111122 
ENP,ioos.station.NOAA.NDBC:CWAF1:1,2017-11-06T19:00:00Z,25.2970,-81.0130,1.5,8.02,1111122 
ENP,ioos.station.NOAA.NDBC:CWAF1:1,2017-11-06T20:00:00Z,25.2970,-81.0130,1.5,10.04,1111122 
ENP,ioos.station.NOAA.NDBC:CWAF1:1,2017-11-06T21:00:00Z,25.2970,-81.0130,1.5,10.29,1111122 
ENP,ioos.station.NOAA.NDBC:CWAF1:1,2017-11-06T22:00:00Z,25.2970,-81.0130,1.5,7.71,1111122 
ENP,ioos.station.NOAA.NDBC:CWAF1:1,2017-11-06T23:00:00Z,25.2970,-81.0130,1.5,9.59,1111122 
ENP,ioos.station.NOAA.NDBC:CWAF1:1,2017-11-07T00:00:00Z,25.2970,-81.0130,1.5,9.84,1111122 
ENP,ioos.station.NOAA.NDBC:CWAF1:1,2017-11-07T01:00:00Z,25.2970,-81.0130,1.5,10.29,1111122 
ENP,ioos.station.NOAA.NDBC:CWAF1:1,2017-11-07T03:00:00Z,25.2970,-81.0130,1.5,10.48,1111122 
ENP,ioos.station.NOAA.NDBC:CWAF1:1,2017-11-07T04:00:00Z,25.2970,-81.0130,1.5,9.21,1111122 
ENP,ioos.station.NOAA.NDBC:CWAF1:1,2017-11-07T06:00:00Z,25.2970,-81.0130,1.5,8.96,1111122 
ENP,ioos.station.NOAA.NDBC:CWAF1:1,2017-11-07T07:00:00Z,25.2970,-81.0130,1.5,8.01,1111122 
ENP,ioos.station.NOAA.NDBC:CWAF1:1,2017-11-07T08:00:00Z,25.2970,-81.0130,1.5,8.09,1111122 
ENP,ioos.station.NOAA.NDBC:CWAF1:1,2017-11-07T09:00:00Z,25.2970,-81.0130,1.5,8.45,1111122 
ENP,ioos.station.NOAA.NDBC:CWAF1:1,2017-11-07T11:00:00Z,25.2970,-81.0130,1.5,9.84,1111122 
ENP,ioos.station.NOAA.NDBC:CWAF1:1,2017-11-07T12:00:00Z,25.2970,-81.0130,1.5,10.48,1111122 
ENP,ioos.station.NOAA.NDBC:CWAF1:1,2017-11-07T13:00:00Z,25.2970,-81.0130,1.5,10.68,1111122 
ENP,ioos.station.NOAA.NDBC:CWAF1:1,2017-11-07T14:00:00Z,25.2970,-81.0130,1.5,10.68,1111122 
ENP,ioos.station.NOAA.NDBC:CWAF1:1,2017-11-07T15:00:00Z,25.2970,-81.0130,1.5,10.55,1111122 
ENP,ioos.station.NOAA.NDBC:CWAF1:1,2017-11-07T16:00:00Z,25.2970,-81.0130,1.5,10.48,1111122 
ENP,ioos.station.NOAA.NDBC:CWAF1:1,2017-11-07T17:00:00Z,25.2970,-81.0130,1.5,9.97,1111122 
ENP,ioos.station.NOAA.NDBC:CWAF1:1,2017-11-07T18:00:00Z,25.2970,-81.0130,1.5,8.7,1111122 
ENP,ioos.station.NOAA.NDBC:CWAF1:1,2017-11-07T19:00:00Z,25.2970,-81.0130,1.5,8.51,1111122 
ENP,ioos.station.NOAA.NDBC:CWAF1:1,2017-11-07T20:00:00Z,25.2970,-81.0130,1.5,7.62,1111122 
ENP,ioos.station.NOAA.NDBC:CWAF1:1,2017-11-07T21:00:00Z,25.2970,-81.0130,1.5,6.85,1111122 
ENP,ioos.station.NOAA.NDBC:CWAF1:1,2017-11-07T22:00:00Z,25.2970,-81.0130,1.5,6.41,1111122 
ENP,ioos.station.NOAA.NDBC:CWAF1:1,2017-11-07T23:00:00Z,25.2970,-81.0130,1.5,6.48,1111122 
ENP,ioos.station.NOAA.NDBC:CWAF1:1,2017-11-08T00:00:00Z,25.2970,-81.0130,1.5,7.41,1111122 
ENP,ioos.station.NOAA.NDBC:CWAF1:1,2017-11-08T01:00:00Z,25.2970,-81.0130,1.5,8.07,1111122 
ENP,ioos.station.NOAA.NDBC:CWAF1:1,2017-11-08T04:00:00Z,25.2970,-81.0130,1.5,8.89,1111122 
ENP,ioos.station.NOAA.NDBC:CWAF1:1,2017-11-08T05:00:00Z,25.2970,-81.0130,1.5,8.89,1111122 
ENP,ioos.station.NOAA.NDBC:CWAF1:1,2017-11-08T07:00:00Z,25.2970,-81.0130,1.5,8.0,1111122 
ENP,ioos.station.NOAA.NDBC:CWAF1:1,2017-11-08T08:00:00Z,25.2970,-81.0130,1.5,7.62,1111122 
ENP,ioos.station.NOAA.NDBC:CWAF1:1,2017-11-08T09:00:00Z,25.2970,-81.0130,1.5,7.55,1111122 
ENP,ioos.station.NOAA.NDBC:CWAF1:1,2017-11-08T11:00:00Z,25.2970,-81.0130,1.5,9.08,1111122 
ENP,ioos.station.NOAA.NDBC:CWAF1:1,2017-11-08T12:00:00Z,25.2970,-81.0130,1.5,10.55,1111122 
ENP,ioos.station.NOAA.NDBC:CWAF1:1,2017-11-08T13:00:00Z,25.2970,-81.0130,1.5,10.87,1111122 
ENP,ioos.station.NOAA.NDBC:CWAF1:1,2017-11-08T14:00:00Z,25.2970,-81.0130,1.5,11.06,1111122 
ENP,ioos.station.NOAA.NDBC:CWAF1:1,2017-11-08T15:00:00Z,25.2970,-81.0130,1.5,11.06,1111122 
ENP,ioos.station.NOAA.NDBC:CWAF1:1,2017-11-08T16:00:00Z,25.2970,-81.0130,1.5,10.87,1111122 
ENP,ioos.station.NOAA.NDBC:CWAF1:1,2017-11-08T18:00:00Z,25.2970,-81.0130,1.5,9.97,1111122 
ENP,ioos.station.NOAA.NDBC:CWAF1:1,2017-11-08T19:00:00Z,25.2970,-81.0130,1.5,8.7,1111122 
ENP,ioos.station.NOAA.NDBC:CWAF1:1,2017-11-08T20:00:00Z,25.2970,-81.0130,1.5,8.39,1111122 
ENP,ioos.station.NOAA.NDBC:CWAF1:1,2017-11-08T21:00:00Z,25.2970,-81.0130,1.5,7.84,1111122 
ENP,ioos.station.NOAA.NDBC:CWAF1:1,2017-11-08T22:00:00Z,25.2970,-81.0130,1.5,7.2,1111122 
ENP,ioos.station.NOAA.NDBC:CWAF1:1,2017-11-08T23:00:00Z,25.2970,-81.0130,1.5,6.79,1111122 
ENP,ioos.station.NOAA.NDBC:CWAF1:1,2017-11-09T00:00:00Z,25.2970,-81.0130,1.5,6.74,1111122 
ENP,ioos.station.NOAA.NDBC:CWAF1:1,2017-11-09T01:00:00Z,25.2970,-81.0130,1.5,7.09,1111122 
ENP,ioos.station.NOAA.NDBC:CWAF1:1,2017-11-09T03:00:00Z,25.2970,-81.0130,1.5,7.9,1111122 
ENP,ioos.station.NOAA.NDBC:CWAF1:1,2017-11-09T04:00:00Z,25.2970,-81.0130,1.5,8.04,1111122 
ENP,ioos.station.NOAA.NDBC:CWAF1:1,2017-11-09T06:00:00Z,25.2970,-81.0130,1.5,8.07,1111122 
ENP,ioos.station.NOAA.NDBC:CWAF1:1,2017-11-09T07:00:00Z,25.2970,-81.0130,1.5,7.45,1111122 
ENP,ioos.station.NOAA.NDBC:CWAF1:1,2017-11-09T08:00:00Z,25.2970,-81.0130,1.5,7.2,1111122 
ENP,ioos.station.NOAA.NDBC:CWAF1:1,2017-11-09T09:00:00Z,25.2970,-81.0130,1.5,7.0,1111122 
ENP,ioos.station.NOAA.NDBC:CWAF1:1,2017-11-09T11:00:00Z,25.2970,-81.0130,1.5,6.87,1111122 
ENP,ioos.station.NOAA.NDBC:CWAF1:1,2017-11-09T12:00:00Z,25.2970,-81.0130,1.5,8.21,1111122 
ENP,ioos.station.NOAA.NDBC:CWAF1:1,2017-11-09T13:00:00Z,25.2970,-81.0130,1.5,8.45,1111122 
ENP,ioos.station.NOAA.NDBC:CWAF1:1,2017-11-09T14:00:00Z,25.2970,-81.0130,1.5,8.89,1111122 
ENP,ioos.station.NOAA.NDBC:CWAF1:1,2017-11-09T15:00:00Z,25.2970,-81.0130,1.5,9.27,1111122 
ENP,ioos.station.NOAA.NDBC:CWAF1:1,2017-11-09T16:00:00Z,25.2970,-81.0130,1.5,9.34,1111122 
ENP,ioos.station.NOAA.NDBC:CWAF1:1,2017-11-09T17:00:00Z,25.2970,-81.0130,1.5,9.27,1111122 
ENP,ioos.station.NOAA.NDBC:CWAF1:1,2017-11-09T18:00:00Z,25.2970,-81.0130,1.5,9.08,1111122 
ENP,ioos.station.NOAA.NDBC:CWAF1:1,2017-11-09T19:00:00Z,25.2970,-81.0130,1.5,9.02,1111122 
ENP,ioos.station.NOAA.NDBC:CWAF1:1,2017-11-09T20:00:00Z,25.2970,-81.0130,1.5,8.89,1111122 
ENP,ioos.station.NOAA.NDBC:CWAF1:1,2017-11-09T21:00:00Z,25.2970,-81.0130,1.5,8.51,1111122 
ENP,ioos.station.NOAA.NDBC:CWAF1:1,2017-11-09T22:00:00Z,25.2970,-81.0130,1.5,7.61,1111122 
ENP,ioos.station.NOAA.NDBC:CWAF1:1,2017-11-09T23:00:00Z,25.2970,-81.0130,1.5,7.0,1111122 
ENP,ioos.station.NOAA.NDBC:CWAF1:1,2017-11-10T00:00:00Z,25.2970,-81.0130,1.5,6.76,1111122 
ENP,ioos.station.NOAA.NDBC:CWAF1:1,2017-11-10T01:00:00Z,25.2970,-81.0130,1.5,6.7,1111122 
ENP,ioos.station.NOAA.NDBC:CWAF1:1,2017-11-10T04:00:00Z,25.2970,-81.0130,1.5,7.6,1111122 
ENP,ioos.station.NOAA.NDBC:CWAF1:1,2017-11-10T07:00:00Z,25.2970,-81.0130,1.5,8.32,1111122 
ENP,ioos.station.NOAA.NDBC:CWAF1:1,2017-11-10T08:00:00Z,25.2970,-81.0130,1.5,8.26,1111122 
ENP,ioos.station.NOAA.NDBC:CWAF1:1,2017-11-10T09:00:00Z,25.2970,-81.0130,1.5,7.86,1111122 
ENP,ioos.station.NOAA.NDBC:CWAF1:1,2017-11-10T11:00:00Z,25.2970,-81.0130,1.5,6.99,1111122 
ENP,ioos.station.NOAA.NDBC:CWAF1:1,2017-11-10T12:00:00Z,25.2970,-81.0130,1.5,6.95,1111122 
ENP,ioos.station.NOAA.NDBC:CWAF1:1,2017-11-10T13:00:00Z,25.2970,-81.0130,1.5,7.04,1111122 
ENP,ioos.station.NOAA.NDBC:CWAF1:1,2017-11-10T14:00:00Z,25.2970,-81.0130,1.5,7.5,1111122 
ENP,ioos.station.NOAA.NDBC:CWAF1:1,2017-11-10T15:00:00Z,25.2970,-81.0130,1.5,8.21,1111122 
ENP,ioos.station.NOAA.NDBC:CWAF1:1,2017-11-10T16:00:00Z,25.2970,-81.0130,1.5,8.51,1111122 
ENP,ioos.station.NOAA.NDBC:CWAF1:1,2017-11-10T17:00:00Z,25.2970,-81.0130,1.5,8.51,1111122 
ENP,ioos.station.NOAA.NDBC:CWAF1:1,2017-11-10T18:00:00Z,25.2970,-81.0130,1.5,8.45,1111122 
ENP,ioos.station.NOAA.NDBC:CWAF1:1,2017-11-10T19:00:00Z,25.2970,-81.0130,1.5,8.18,1111122 
ENP,ioos.station.NOAA.NDBC:CWAF1:1,2017-11-10T20:00:00Z,25.2970,-81.0130,1.5,7.28,1111122 
ENP,ioos.station.NOAA.NDBC:CWAF1:1,2017-11-10T21:00:00Z,25.2970,-81.0130,1.5,7.29,1111122 
ENP,ioos.station.NOAA.NDBC:CWAF1:1,2017-11-10T22:00:00Z,25.2970,-81.0130,1.5,7.34,1111122 
ENP,ioos.station.NOAA.NDBC:CWAF1:1,2017-11-10T23:00:00Z,25.2970,-81.0130,1.5,7.32,1111122 
ENP,ioos.station.NOAA.NDBC:CWAF1:1,2017-11-11T00:00:00Z,25.2970,-81.0130,1.5,6.69,1111122 
ENP,ioos.station.NOAA.NDBC:CWAF1:1,2017-11-11T01:00:00Z,25.2970,-81.0130,1.5,6.56,1111122 
ENP,ioos.station.NOAA.NDBC:CWAF1:1,2017-11-11T03:00:00Z,25.2970,-81.0130,1.5,6.51,1111122 
ENP,ioos.station.NOAA.NDBC:CWAF1:1,2017-11-11T04:00:00Z,25.2970,-81.0130,1.5,6.53,1111122 
ENP,ioos.station.NOAA.NDBC:CWAF1:1,2017-11-11T06:00:00Z,25.2970,-81.0130,1.5,6.56,1111122 
ENP,ioos.station.NOAA.NDBC:CWAF1:1,2017-11-11T07:00:00Z,25.2970,-81.0130,1.5,6.64,1111122 
ENP,ioos.station.NOAA.NDBC:CWAF1:1,2017-11-11T08:00:00Z,25.2970,-81.0130,1.5,6.69,1111122 
ENP,ioos.station.NOAA.NDBC:CWAF1:1,2017-11-11T09:00:00Z,25.2970,-81.0130,1.5,6.74,1111122 
ENP,ioos.station.NOAA.NDBC:CWAF1:1,2017-11-11T11:00:00Z,25.2970,-81.0130,1.5,6.72,1111122 
ENP,ioos.station.NOAA.NDBC:CWAF1:1,2017-11-11T12:00:00Z,25.2970,-81.0130,1.5,6.73,1111122 
ENP,ioos.station.NOAA.NDBC:CWAF1:1,2017-11-11T13:00:00Z,25.2970,-81.0130,1.5,6.54,1111122 
ENP,ioos.station.NOAA.NDBC:CWAF1:1,2017-11-11T14:00:00Z,25.2970,-81.0130,1.5,6.4,1111122 
ENP,ioos.station.NOAA.NDBC:CWAF1:1,2017-11-11T15:00:00Z,25.2970,-81.0130,1.5,6.23,1111122 
ENP,ioos.station.NOAA.NDBC:CWAF1:1,2017-11-11T16:00:00Z,25.2970,-81.0130,1.5,6.23,1111122 
ENP,ioos.station.NOAA.NDBC:CWAF1:1,2017-11-11T17:00:00Z,25.2970,-81.0130,1.5,6.31,1111122 
ENP,ioos.station.NOAA.NDBC:CWAF1:1,2017-11-11T18:00:00Z,25.2970,-81.0130,1.5,6.31,1111122 
ENP,ioos.station.NOAA.NDBC:CWAF1:1,2017-11-11T19:00:00Z,25.2970,-81.0130,1.5,6.31,1111122 
ENP,ioos.station.NOAA.NDBC:CWAF1:1,2017-11-11T20:00:00Z,25.2970,-81.0130,1.5,6.32,1111122 
ENP,ioos.station.NOAA.NDBC:CWAF1:1,2017-11-11T21:00:00Z,25.2970,-81.0130,1.5,6.32,1111122 
ENP,ioos.station.NOAA.NDBC:CWAF1:1,2017-11-11T22:00:00Z,25.2970,-81.0130,1.5,6.32,1111122 
ENP,ioos.station.NOAA.NDBC:CWAF1:1,2017-11-11T23:00:00Z,25.2970,-81.0130,1.5,6.26,1111122 
ENP,ioos.station.NOAA.NDBC:CWAF1:1,2017-11-12T00:00:00Z,25.2970,-81.0130,1.5,6.28,1111122 
ENP,ioos.station.NOAA.NDBC:CWAF1:1,2017-11-12T01:00:00Z,25.2970,-81.0130,1.5,6.19,1111122 
ENP,ioos.station.NOAA.NDBC:CWAF1:1,2017-11-12T04:00:00Z,25.2970,-81.0130,1.5,5.86,1111122 
ENP,ioos.station.NOAA.NDBC:CWAF1:1,2017-11-12T07:00:00Z,25.2970,-81.0130,1.5,5.65,1111122 
ENP,ioos.station.NOAA.NDBC:CWAF1:1,2017-11-12T08:00:00Z,25.2970,-81.0130,1.5,5.63,1111122 
ENP,ioos.station.NOAA.NDBC:CWAF1:1,2017-11-12T09:00:00Z,25.2970,-81.0130,1.5,5.62,1111122 
ENP,ioos.station.NOAA.NDBC:CWAF1:1,2017-11-12T12:00:00Z,25.2970,-81.0130,1.5,5.66,1111122 
ENP,ioos.station.NOAA.NDBC:CWAF1:1,2017-11-12T13:00:00Z,25.2970,-81.0130,1.5,5.65,1111122 
ENP,ioos.station.NOAA.NDBC:CWAF1:1,2017-11-12T14:00:00Z,25.2970,-81.0130,1.5,5.63,1111122 
ENP,ioos.station.NOAA.NDBC:CWAF1:1,2017-11-12T15:00:00Z,25.2970,-81.0130,1.5,5.62,1111122 
ENP,ioos.station.NOAA.NDBC:CWAF1:1,2017-11-12T16:00:00Z,25.2970,-81.0130,1.5,5.63,1111122 
ENP,ioos.station.NOAA.NDBC:CWAF1:1,2017-11-12T17:00:00Z,25.2970,-81.0130,1.5,5.74,1111122 
ENP,ioos.station.NOAA.NDBC:CWAF1:1,2017-11-12T18:00:00Z,25.2970,-81.0130,1.5,5.97,1111122 
ENP,ioos.station.NOAA.NDBC:CWAF1:1,2017-11-12T19:00:00Z,25.2970,-81.0130,1.5,6.13,1111122 
ENP,ioos.station.NOAA.NDBC:CWAF1:1,2017-11-12T20:00:00Z,25.2970,-81.0130,1.5,6.02,1111122 
ENP,ioos.station.NOAA.NDBC:CWAF1:1,2017-11-12T21:00:00Z,25.2970,-81.0130,1.5,6.05,1111122 
ENP,ioos.station.NOAA.NDBC:CWAF1:1,2017-11-12T22:00:00Z,25.2970,-81.0130,1.5,6.06,1111122 
ENP,ioos.station.NOAA.NDBC:CWAF1:1,2017-11-12T23:00:00Z,25.2970,-81.0130,1.5,6.13,1111122 
ENP,ioos.station.NOAA.NDBC:CWAF1:1,2017-11-13T00:00:00Z,25.2970,-81.0130,1.5,6.12,1111122 
ENP,ioos.station.NOAA.NDBC:CWAF1:1,2017-11-13T01:00:00Z,25.2970,-81.0130,1.5,6.08,1111122 
ENP,ioos.station.NOAA.NDBC:CWAF1:1,2017-11-13T03:00:00Z,25.2970,-81.0130,1.5,5.93,1111122 
ENP,ioos.station.NOAA.NDBC:CWAF1:1,2017-11-13T04:00:00Z,25.2970,-81.0130,1.5,5.8,1111122 
ENP,ioos.station.NOAA.NDBC:CWAF1:1,2017-11-13T06:00:00Z,25.2970,-81.0130,1.5,5.69,1111122 
ENP,ioos.station.NOAA.NDBC:CWAF1:1,2017-11-13T07:00:00Z,25.2970,-81.0130,1.5,5.68,1111122 
ENP,ioos.station.NOAA.NDBC:CWAF1:1,2017-11-13T08:00:00Z,25.2970,-81.0130,1.5,5.69,1111122 
ENP,ioos.station.NOAA.NDBC:CWAF1:1,2017-11-13T09:00:00Z,25.2970,-81.0130,1.5,5.76,1111122 
ENP,ioos.station.NOAA.NDBC:CWAF1:1,2017-11-13T11:00:00Z,25.2970,-81.0130,1.5,5.79,1111122 
ENP,ioos.station.NOAA.NDBC:CWAF1:1,2017-11-13T12:00:00Z,25.2970,-81.0130,1.5,5.83,1111122 
ENP,ioos.station.NOAA.NDBC:CWAF1:1,2017-11-13T13:00:00Z,25.2970,-81.0130,1.5,5.81,1111122 
ENP,ioos.station.NOAA.NDBC:CWAF1:1,2017-11-13T14:00:00Z,25.2970,-81.0130,1.5,5.83,1111122 
ENP,ioos.station.NOAA.NDBC:CWAF1:1,2017-11-13T15:00:00Z,25.2970,-81.0130,1.5,5.82,1111122 
ENP,ioos.station.NOAA.NDBC:CWAF1:1,2017-11-13T16:00:00Z,25.2970,-81.0130,1.5,5.71,1111122 
ENP,ioos.station.NOAA.NDBC:CWAF1:1,2017-11-13T17:00:00Z,25.2970,-81.0130,1.5,5.64,1111122 
ENP,ioos.station.NOAA.NDBC:CWAF1:1,2017-11-13T18:00:00Z,25.2970,-81.0130,1.5,5.57,1111122 
ENP,ioos.station.NOAA.NDBC:CWAF1:1,2017-11-13T19:00:00Z,25.2970,-81.0130,1.5,5.57,1111122 
ENP,ioos.station.NOAA.NDBC:CWAF1:1,2017-11-13T20:00:00Z,25.2970,-81.0130,1.5,5.57,1111122 
ENP,ioos.station.NOAA.NDBC:CWAF1:1,2017-11-13T21:00:00Z,25.2970,-81.0130,1.5,5.62,1111122 
ENP,ioos.station.NOAA.NDBC:CWAF1:1,2017-11-13T22:00:00Z,25.2970,-81.0130,1.5,5.64,1111122 
ENP,ioos.station.NOAA.NDBC:CWAF1:1,2017-11-13T23:00:00Z,25.2970,-81.0130,1.5,5.75,1111122 
ENP,ioos.station.NOAA.NDBC:CWAF1:1,2017-11-14T00:00:00Z,25.2970,-81.0130,1.5,5.79,1111122 
ENP,ioos.station.NOAA.NDBC:CWAF1:1,2017-11-14T01:00:00Z,25.2970,-81.0130,1.5,5.85,1111122 
ENP,ioos.station.NOAA.NDBC:CWAF1:1,2017-11-14T03:00:00Z,25.2970,-81.0130,1.5,5.86,1111122 
ENP,ioos.station.NOAA.NDBC:CWAF1:1,2017-11-14T04:00:00Z,25.2970,-81.0130,1.5,5.87,1111122 
ENP,ioos.station.NOAA.NDBC:CWAF1:1,2017-11-14T06:00:00Z,25.2970,-81.0130,1.5,5.83,1111122 
ENP,ioos.station.NOAA.NDBC:CWAF1:1,2017-11-14T07:00:00Z,25.2970,-81.0130,1.5,5.84,1111122 
ENP,ioos.station.NOAA.NDBC:CWAF1:1,2017-11-14T08:00:00Z,25.2970,-81.0130,1.5,5.85,1111122 
ENP,ioos.station.NOAA.NDBC:CWAF1:1,2017-11-14T09:00:00Z,25.2970,-81.0130,1.5,5.99,1111122 
ENP,ioos.station.NOAA.NDBC:CWAF1:1,2017-11-14T11:00:00Z,25.2970,-81.0130,1.5,6.13,1111122 
ENP,ioos.station.NOAA.NDBC:CWAF1:1,2017-11-14T12:00:00Z,25.2970,-81.0130,1.5,6.21,1111122 
ENP,ioos.station.NOAA.NDBC:CWAF1:1,2017-11-14T13:00:00Z,25.2970,-81.0130,1.5,6.17,1111122 
ENP,ioos.station.NOAA.NDBC:CWAF1:1,2017-11-14T14:00:00Z,25.2970,-81.0130,1.5,6.22,1111122 
ENP,ioos.station.NOAA.NDBC:CWAF1:1,2017-11-14T15:00:00Z,25.2970,-81.0130,1.5,6.21,1111122 
ENP,ioos.station.NOAA.NDBC:CWAF1:1,2017-11-14T16:00:00Z,25.2970,-81.0130,1.5,6.18,1111122 
ENP,ioos.station.NOAA.NDBC:CWAF1:1,2017-11-14T17:00:00Z,25.2970,-81.0130,1.5,6.15,1111122 
ENP,ioos.station.NOAA.NDBC:CWAF1:1,2017-11-14T18:00:00Z,25.2970,-81.0130,1.5,6.02,1111122 
ENP,ioos.station.NOAA.NDBC:CWAF1:1,2017-11-14T19:00:00Z,25.2970,-81.0130,1.5,5.93,1111122 
ENP,ioos.station.NOAA.NDBC:CWAF1:1,2017-11-14T20:00:00Z,25.2970,-81.0130,1.5,5.99,1111122 
ENP,ioos.station.NOAA.NDBC:CWAF1:1,2017-11-14T21:00:00Z,25.2970,-81.0130,1.5,6.05,1111122 
ENP,ioos.station.NOAA.NDBC:CWAF1:1,2017-11-14T22:00:00Z,25.2970,-81.0130,1.5,6.05,1111122 
ENP,ioos.station.NOAA.NDBC:CWAF1:1,2017-11-14T23:00:00Z,25.2970,-81.0130,1.5,6.07,1111122 
ENP,ioos.station.NOAA.NDBC:CWAF1:1,2017-11-15T00:00:00Z,25.2970,-81.0130,1.5,6.1,1111122 
ENP,ioos.station.NOAA.NDBC:CWAF1:1,2017-11-15T01:00:00Z,25.2970,-81.0130,1.5,6.1,1111122 
ENP,ioos.station.NOAA.NDBC:CWAF1:1,2017-11-15T03:00:00Z,25.2970,-81.0130,1.5,6.07,1111122 
ENP,ioos.station.NOAA.NDBC:CWAF1:1,2017-11-15T04:00:00Z,25.2970,-81.0130,1.5,6.07,1111122 
ENP,ioos.station.NOAA.NDBC:CWAF1:1,2017-11-15T06:00:00Z,25.2970,-81.0130,1.5,6.0,1111122 
ENP,ioos.station.NOAA.NDBC:CWAF1:1,2017-11-15T07:00:00Z,25.2970,-81.0130,1.5,6.0,1111122 
ENP,ioos.station.NOAA.NDBC:CWAF1:1,2017-11-15T08:00:00Z,25.2970,-81.0130,1.5,6.25,1111122 
ENP,ioos.station.NOAA.NDBC:CWAF1:1,2017-11-15T09:00:00Z,25.2970,-81.0130,1.5,6.16,1111122 
ENP,ioos.station.NOAA.NDBC:CWAF1:1,2017-11-15T11:00:00Z,25.2970,-81.0130,1.5,6.38,1111122 
ENP,ioos.station.NOAA.NDBC:CWAF1:1,2017-11-15T12:00:00Z,25.2970,-81.0130,1.5,6.45,1111122 
ENP,ioos.station.NOAA.NDBC:CWAF1:1,2017-11-15T14:00:00Z,25.2970,-81.0130,1.5,6.53,1111122 
ENP,ioos.station.NOAA.NDBC:CWAF1:1,2017-11-15T15:00:00Z,25.2970,-81.0130,1.5,6.54,1111122 
ENP,ioos.station.NOAA.NDBC:CWAF1:1,2017-11-15T16:00:00Z,25.2970,-81.0130,1.5,6.46,1111122 
ENP,ioos.station.NOAA.NDBC:CWAF1:1,2017-11-15T17:00:00Z,25.2970,-81.0130,1.5,6.13,1111122 
ENP,ioos.station.NOAA.NDBC:CWAF1:1,2017-11-15T18:00:00Z,25.2970,-81.0130,1.5,6.02,1111122 
ENP,ioos.station.NOAA.NDBC:CWAF1:1,2017-11-15T19:00:00Z,25.2970,-81.0130,1.5,6.03,1111122 
ENP,ioos.station.NOAA.NDBC:CWAF1:1,2017-11-15T20:00:00Z,25.2970,-81.0130,1.5,6.03,1111122 
ENP,ioos.station.NOAA.NDBC:CWAF1:1,2017-11-15T21:00:00Z,25.2970,-81.0130,1.5,6.52,1111122 
ENP,ioos.station.NOAA.NDBC:CWAF1:1,2017-11-15T22:00:00Z,25.2970,-81.0130,1.5,7.42,1111122 